Location: Sedan
(39.2354°N, 78.5718°W)
Time: 20:54:27
(UTC+00:00)

WORLDVIEW 2 - Pass Details

Date: 14 August 2022
Orbit: 764 x 767 km, 98.5° (Epoch: 05 October)

Event Time Altitude Azimuth Distance (km) Brightness Sun altitude
Exits shadow 02:53:21 49° 52° (NE) 985 5.4 -26.5°
Drops below altitude 10° 02:57:48 10° 358° (N) 2,315 8.1 -27.1°
Sets 03:00:10 0° 353° (N) 3,245 9.1 -27.4°
